Greybull, WY

4:21 AM MST on December 10, 2019 (GMT -0700)
South Big Horn County

Weather History for KGEY - October, 2019

Change the Weather History Date:

Tuesday, October 29, 2019

  Actual Average Record
Temperature  
Mean Temperature 14 °F 41 °F  
Max Temperature 21 °F 54 °F 71 °F (2007)
Min Temperature 6 °F 27 °F 14 °F (2002)
Degree Days  
Heating Degree Days 52 24  
Month to date heating degree days 734 539  
Since 1 July heating degree days 909 770  
Cooling Degree Days 0 0  
Month to date cooling degree days 0 0  
Year to date cooling degree days 733 669  
Moisture  
Dew Point -0 °F    
Average Humidity 54    
Maximum Humidity 76    
Minimum Humidity 38    
Precipitation  
Precipitation T in 0.01 in 0.30 in (2004)
Month to date precipitation 0.61 0.58  
Year to date precipitation 7.93 6.91  
Sea Level Pressure  
Sea Level Pressure 30.49 in    
Wind  
Wind Speed 12 mph ()    
Max Wind Speed 24 mph    
Max Gust Speed 32 mph    
Visibility 10.0 miles    
Events      
T = Trace of Precipitation, MM = Missing Value Source: Averaged Metar Reports

Daily Weather History Graph

Daily Weather History Graph

Search for Another Location

Airport or City:

Astronomy

Oct. 29, 2019 Rise Set
Actual Time 7:45 AM MDT 6:05 PM MDT
Civil Twilight 7:15 AM MDT 6:35 PM MDT
Nautical Twilight 6:41 AM MDT 7:10 PM MDT
Astronomical Twilight 6:07 AM MDT 7:43 PM MDT
Moon 9:25 AM MDT (10/29) 7:28 PM MDT (10/29)
Length of Visible Light 11h 20m
Length of Day
10h 20m
Waxing Crescent, 3% of the Moon is Illuminated
Oct 29
Waxing Crescent
Nov 4
First Quarter
Nov 12
Full
Nov 19
Last Quarter
Nov 26
New

Hourly Weather History & Observations

Time (MDT) Temp. Windchill Dew Point Humidity Pressure Visibility Wind Dir Wind Speed Gust Speed Precip Events Conditions
12:53 AM 14.0 °F -4.3 °F -0.0 °F 54% 30.33 in 10.0 mi NNW 21.9 mph 29.9 mph N/A   Overcast
1:53 AM 14.0 °F -2.5 °F 1.0 °F 56% 30.34 in 10.0 mi NNW 17.3 mph - N/A   Overcast
2:53 AM 14.0 °F -1.4 °F 1.0 °F 56% 30.37 in 10.0 mi North 15.0 mph 25.3 mph N/A   Overcast
3:53 AM 14.0 °F -1.4 °F 1.0 °F 56% 30.39 in 10.0 mi NNW 15.0 mph - 0.00 in   Overcast
4:07 AM 14.0 °F -0.8 °F 1.0 °F 56% 30.23 in 10.0 mi NNW 13.8 mph - N/A   Overcast
4:53 AM 12.9 °F -0.9 °F 5.0 °F 71% 30.42 in 9.0 mi NNW 11.5 mph - 0.00 in   Overcast
5:01 AM 12.9 °F -2.2 °F 3.0 °F 65% 30.25 in 10.0 mi NNW 13.8 mph - N/A   Overcast
5:53 AM 12.0 °F -3.4 °F 1.9 °F 64% 30.45 in 10.0 mi NNW 13.8 mph - N/A   Overcast
6:53 AM 12.0 °F -6.0 °F 1.0 °F 61% 30.47 in 10.0 mi NNW 19.6 mph - N/A   Overcast
7:53 AM 10.9 °F -7.9 °F -0.0 °F 61% 30.51 in 10.0 mi NNW 20.7 mph - N/A   Overcast
8:53 AM 12.0 °F -5.1 °F -0.9 °F 56% 30.54 in 10.0 mi NNW 17.3 mph 25.3 mph N/A   Clear
9:53 AM 14.0 °F -2.0 °F -0.9 °F 52% 30.56 in 10.0 mi NNW 16.1 mph - N/A   Clear
10:53 AM 16.0 °F 3.6 °F -0.9 °F 47% 30.55 in 10.0 mi NNW 10.4 mph - N/A   Clear
11:53 AM 18.0 °F 4.8 °F -2.0 °F 41% 30.55 in 10.0 mi NW 12.7 mph 19.6 mph N/A   Partly Cloudy
12:53 PM 19.0 °F 8.2 °F -2.0 °F 40% 30.53 in 10.0 mi NNW 9.2 mph 18.4 mph N/A   Mostly Cloudy
1:53 PM 19.9 °F 8.6 °F -2.0 °F 38% 30.52 in 10.0 mi NNW 10.4 mph 21.9 mph N/A   Clear
2:53 PM 18.0 °F 6.1 °F -2.0 °F 41% 30.51 in 10.0 mi WNW 10.4 mph 16.1 mph N/A   Mostly Cloudy
3:53 PM 19.0 °F 8.2 °F -2.9 °F 38% 30.51 in 10.0 mi West 9.2 mph - N/A   Partly Cloudy
4:53 PM 18.0 °F 6.1 °F -4.0 °F 38% 30.53 in 10.0 mi West 10.4 mph - N/A   Clear
5:53 PM 16.0 °F 5.3 °F -4.0 °F 41% 30.55 in 10.0 mi West 8.1 mph - N/A   Clear
6:53 PM 14.0 °F 3.9 °F -2.9 °F 47% 30.57 in 10.0 mi WNW 6.9 mph - N/A   Clear
7:53 PM 12.0 °F 0.5 °F -2.0 °F 53% 30.59 in 10.0 mi West 8.1 mph - N/A   Clear
8:53 PM 10.9 °F 1.4 °F -0.9 °F 59% 30.61 in 10.0 mi NW 5.8 mph - N/A   Clear
9:53 PM 9.0 °F 2.4 °F -0.0 °F 67% 30.61 in 10.0 mi NW 3.5 mph - N/A   Clear
10:53 PM 9.0 °F - -0.0 °F 67% 30.61 in 10.0 mi Calm Calm - N/A   Clear
11:53 PM 7.0 °F 0.1 °F -0.0 °F 73% 30.61 in 10.0 mi ESE 3.5 mph - N/A   Clear